Location: El Águila
(10.4167°N, 66.7167°W)
Time: 16:41:24
(UTC+00:00)

CZ-3C R/B - Pass Details

Date: 04 April 2023
Orbit: 253 x 32126 km, 20.0° (Epoch: 28 May)

Event Time Altitude Azimuth Distance (km) Brightness Sun altitude
Rises 00:51:07 0° 249° (WSW) 6,348 7.4 -33.2°
Reaches altitude 10° 00:53:31 10° 248° (WSW) 6,116 7.2 -33.8°
Maximum altitude 05:44:40 79° 358° (N) 32,192 9.7 -65.5°
Drops below altitude 10° 09:41:15 10° 110° (ESE) 6,441 7.8 -10.9°
Sets 09:43:48 0° 110° (ESE) 6,636 8.0 -10.3°
